Regional Weather Roundup
Issued by NWS Newport/Morehead, NC

Current Version | Previous Version | Graphics & Text | Print | Product List | Glossary Off
Versions: 1 2 3 4 5 6 7 8 9 10 11 12 13 14 15 16 17 18 19 20 21 22 23 24 25 26 27 28 29 30 31 32 33 34 35 36 37 38 39 40 41 42 43 44 45 46 47 48 49 50

394
ASUS42 KMHX 131125
RWRMHX
WEATHER ROUNDUP FOR EASTERN NORTH CAROLINA
NATIONAL WEATHER SERVICE NEWPORT/MOREHEAD CITY NC
600 AM EST SAT FEB 13 2016

NOTE: "FAIR" INDICATES FEW OR NO CLOUDS BELOW 12,000 FEET
WITH NO SIGNIFICANT WEATHER AND/OR OBSTRUCTIONS TO VISIBILITY

NCZ015>017-031-032-045>047-102-103-131200-
NORTH COAST

CITY           SKY/WX    TMP DP  RH WIND       PRES   REMARKS
EDENTON        CLEAR     26  24  93 NE5       30.13R
ELIZABETH CITY PTCLDY    21  19  92 W5        30.10R
KITTY HAWK     NOT AVBL
MANTEO         NOT AVBL

$$

NCZ045>047-081-094-103-104-131200-
CENTRAL COAST

CITY           SKY/WX    TMP DP  RH WIND       PRES   REMARKS
FRISCO         CLEAR     33  26  75 NW9G17    30.08R
SWANQUARTER      N/A     28 N/A N/A W2        30.09R

$$

NCZ095-097-098-100-101-131200-
SOUTHERN COAST

CITY           SKY/WX    TMP DP  RH WIND       PRES   REMARKS
BEAUFORT       CLEAR     32  27  81 NW12      30.11R
CEDAR ISLAND     N/A     34 N/A N/A NW15G22   30.15R
JACKSONVILLE   CLEAR     28  25  88 W5        30.12R FOG
PINEY ISLAND   SUNNY    N/A N/A N/A NW9       30.10R
WILMINGTON     CLEAR     29  26  89 CALM      30.13R FOG


$$

NCZ011>013-027>030-043-044-078>080-089-090>093-098-131200-
COASTAL PLAIN

CITY           SKY/WX    TMP DP  RH WIND       PRES   REMARKS
AHOSKIE        NOT AVBL
CLINTON        CLEAR     27  27 100 CALM      30.14R FOG
ELIZABETHTOWN  CLEAR     25  24  96 CALM      30.14R FOG
GOLDSBORO      CLEAR     28  28 100 NW3       30.12R
GREENVILLE     CLEAR     28  23  80 NW3       30.14R
HAVELOCK       MOCLDY    30  27  88 NW5       30.12R FOG
KENANSVILLE    CLEAR     26  26  99 CALM      30.15R
KINSTON        NOT AVBL
NEW BERN       CLEAR     29  26  89 NW7       30.13R
RICHLANDS      CLEAR     27  19  74 CALM      30.14R
ROCKY MOUNT    CLEAR     28  19  69 NW6       30.13R
WASHINGTON     CLEAR     25  22  87 NW3       30.13R
WHITEVILLE     CLEAR     28  27  94 CALM      30.14R FOG

$$

AMZ130-135-150-152-154-156-158-170-250-252-270-ANZ085-086-088-633-658-670-131200-
MARINE OBSERVATIONS

STATION/POSITION TIME  TEMP    WIND        PRES    WAVE   SWELL
                       AIR SEA DIR/SP/G            HT/PER HT/PER
                 (UTC) (F)     (DEG/KT/KT) (MB)    (FT/S) (FT/S)
CHESAPEAKE LIGHT 1100   31     330/ 17/ 19 1018.7
64 E VA BEACH    1050   35 48  330/ 19/ 27 1016.3    5/ 6
DUCK             1100   29     310/ 12/ 15 1018.0
2 E DUCK         1011      42                N/A     2/ 3
OREGON INLET     1100   30 40  310/ 12/ 16 1018.6
13E OREGON INLT  1100      44                N/A     4/ 5   2/11
HATTERAS CG      1100   34 44  320/ 18/ 22 1018.2
DIAMOND BUOY     1050   39 71  340/ 21/ 25 1017.9    6/ 8   3/ 8
CAPE LOOKOUT     NOT AVBL
BEAUFORT LAB     1100   32 42  330/  6/ 10 1018.5
30 SE NEW RVR IN 1108   43 61              1018.8
30 SE NEW RVR IN 1025      61                N/A     5/ 5
27 SE WRIGHTSVLE 1108   41 59   10/ 17/ 23 1018.4
5 SE WRIGHTSVLE  1008   37 50  340/ 16/ 21 1019.4
225 S CAPE HAT   1050   60 68  320/ 17/ 25   N/A    10/10   7/10
41 SE CHARLESTON 1050   48 67  350/ 19/ 21 1019.6    4/ 6   2/10

$$




USA.gov is the U.S. government's official web portal to all federal, state and local government web resources and services.